This demonstration page uses our WeatherBlox Daily Observations layout. Learn more.

Left ArrowRight Arrow

36.17497, -115.13722

Hourly Observations for March 10, 2021

Temp ( °F °C ) Dew Point ( °F °C ) Humidity (%) Winds ( mph kmh ) Pressure ( in mb ) Visibility ( mi km ) Precip ( " mm )
12:53 am 00:53 Clear 50 10 14 -10 24 24 S 13 20 29.90 1013 10 16 0.00 0.00
1:53 am 01:53 Clear 50 10 14 -10 24 24 SSW 9 15 29.89 1012 10 16 0.00 0.00
2:53 am 02:53 Clear 49 9.4 22 -5.6 35 35 S 12 19 29.88 1012 10 16 0.00 0.00
3:53 am 03:53 Clear 48 8.9 24 -4.4 39 39 SSE 10 17 29.88 1012 10 16 0.00 0.00
4:53 am 04:53 Clear 50 10 20 -6.7 30 30 S 12 19 29.88 1012 10 16 0.00 0.00
5:53 am 05:53 Clear 47 8.3 23 -5 39 39 S 10 17 29.89 1012 10 16 0.00 0.00
6:53 am 06:53 Sunny 48 8.9 22 -5.6 36 36 NE 5 7 29.89 1012 10 16 0.00 0.00
7:53 am 07:53 Sunny 51 10.6 19 -7.2 28 28 SSW 18 30 29.91 1013 10 16 0.00 0.00
8:53 am 08:53 Mostly Sunny 52 11.1 25 -3.9 35 35 S 15 24 29.91 1013 10 16 0.00 0.00
9:53 am 09:53 Mostly Sunny 53 11.7 24 -4.4 32 32 ESE 8 13 29.91 1013 10 16 0.00 0.00
10:53 am 10:53 Cloudy 54 12.2 26 -3.3 34 34 SW 22 35 29.91 1013 10 16 0.00 0.00
11:53 am 11:53 Cloudy 51 10.6 30 -1.1 44 44 S 23 37 29.93 1014 10 16 0.00 0.00
12:53 pm 12:53 Partly Cloudy 54 12.2 29 -1.7 38 38 S 12 19 29.88 1012 10 16 0.00 0.00
1:53 pm 13:53 Partly Cloudy 57 13.9 24 -4.4 28 28 SSW 13 20 29.85 1011 10 16 0.00 0.00
2:53 pm 14:53 Partly Cloudy 57 13.9 25 -3.9 29 29 SSW 22 35 29.84 1011 10 16 0.00 0.00
3:53 pm 15:53 Cloudy 55 12.8 23 -5 29 29 WSW 22 35 29.85 1011 10 16 0.00 0.00
4:53 pm 16:53 Cloudy 52 11.1 28 -2.2 40 40 WSW 17 28 29.86 1011 10 16 0.00 0.00
5:53 pm 17:53 Mostly Cloudy 48 8.9 32 0 54 54 S 7 11 29.87 1012 10 16 0.00 0.00
6:53 pm 18:53 Clear 48 8.9 30 -1.1 50 50 NE 6 9 29.87 1012 10 16 0.00 0.00
7:53 pm 19:53 Clear 49 9.4 26 -3.3 41 41 SSE 12 19 29.86 1011 10 16 0.00 0.00
8:53 pm 20:53 Clear 47 8.3 27 -2.8 46 46 SSE 7 11 29.86 1011 10 16 0.00 0.00
9:53 pm 21:53 Clear 48 8.9 25 -3.9 41 41 S 8 13 29.88 1012 10 16 0.00 0.00
10:53 pm 22:53 Clear 48 8.9 23 -5 37 37 SSW 8 13 29.88 1012 10 16 0.00 0.00
11:53 pm 23:53 Clear 48 8.9 23 -5 37 37 WSW 3 6 29.90 1013 10 16 0.00 0.00

Powered by AerisWeather